This demonstration page uses our WeatherBlox Daily Observations layout. Learn more.

Left ArrowRight Arrow

Hourly Observations for June 30, 2017

Temp ( °F °C ) Dew Point ( °F °C ) Humidity (%) Winds ( mph kmh ) Pressure ( in mb ) Visibility ( mi km ) Precip ( " mm )
12:04 am 00:04 Cloudy with Strong Thunderstorms 66 19 63 17 88 88 WNW 16 26 29.87 1012 10 16 0.00 0.00
12:25 am 00:25 Cloudy with Thunderstorms 66 19 64 18 94 94 S 8 13 29.84 1011 10 16 0.00 0.00
12:55 am 00:55 Mostly Cloudy 66 19 64 18 94 94 ENE 6 9 29.80 1009 10 16 0.00 0.00
12:56 am 00:56 Mostly Cloudy 66 18.8 64 17.5 92 92 ENE 6 9 29.80 1009 10 16 0.23 5.84
1:56 am 01:56 Clear 65 18.3 63 17.3 94 94 NNW 5 7 29.80 1009 10 16 0.00 0.00
2:56 am 02:56 Clear 65 18.5 64 17.7 95 95 WNW 8 13 29.84 1011 10 16 0.00 0.00
3:56 am 03:56 Mostly Cloudy 66 19.1 63 17.4 90 90 NW 9 15 29.87 1012 10 16 0.00 0.00
4:06 am 04:06 Partly Cloudy 66 19 63 17 88 88 NNW 3 6 29.88 1012 10 16 0.00 0.00
4:26 am 04:26 Mostly Cloudy 66 19 63 17 88 88 NW 3 6 29.87 1012 10 16 0.00 0.00
4:56 am 04:56 Cloudy 66 18.7 63 17.2 91 91 NNW 5 7 29.86 1011 10 16 0.00 0.00
5:06 am 05:06 Partly Cloudy 64 18 63 17 94 94 NW 3 6 29.86 1011 10 16 0.00 0.00
5:56 am 05:56 Sunny 64 18 62 16.8 93 93 WNW 8 13 29.86 1011 8 13 0.00 0.00
6:01 am 06:01 Mostly Sunny 64 18 63 17 94 94 WNW 10 17 29.87 1012 7 11 0.00 0.00
6:21 am 06:21 Mostly Cloudy 64 18 63 17 94 94 NW 9 15 29.88 1012 8 13 0.00 0.00
6:56 am 06:56 Mostly Cloudy 64 17.6 61 16.1 91 91 NW 5 7 29.90 1013 10 16 0.00 0.00
7:16 am 07:16 Partly Cloudy 63 17 61 16 94 94 Calm 29.90 1013 10 16 0.00 0.00
7:56 am 07:56 Sunny 65 18.1 61 16.1 88 88 NW 8 13 29.93 1014 10 16 0.00 0.00
8:56 am 08:56 Sunny 66 19.1 61 16.3 84 84 NW 8 13 29.95 1014 10 16 0.00 0.00
9:56 am 09:56 Partly Cloudy 70 21 63 17 78 78 WNW 8 13 29.94 1014 10 16 0.00 0.00
10:56 am 10:56 Sunny 74 23.3 64 17.5 70 70 NW 12 19 29.94 1014 10 16 0.00 0.00
11:56 am 11:56 Sunny 76 24.4 61 16.1 60 60 NW 10 17 29.93 1014 10 16 0.00 0.00
12:56 pm 12:56 Sunny 77 24.9 60 15.5 56 56 NW 9 15 29.92 1013 10 16 0.00 0.00
1:56 pm 13:56 Sunny 78 25.6 58 14.7 51 51 NNW 7 11 29.93 1014 10 16 0.00 0.00
2:56 pm 14:56 Mostly Cloudy 78 25.4 58 14.5 51 51 NW 9 15 29.96 1015 10 16 0.00 0.00
3:56 pm 15:56 Partly Cloudy 78 25.3 59 15 53 53 WNW 9 15 29.96 1015 10 16 0.00 0.00
4:56 pm 16:56 Mostly Sunny 78 25.3 60 15.3 54 54 WNW 9 15 29.95 1014 10 16 0.00 0.00
5:56 pm 17:56 Mostly Sunny 78 25.8 57 13.9 48 48 W 9 15 29.95 1014 10 16 0.00 0.00
6:56 pm 18:56 Mostly Cloudy 78 25.5 58 14.6 51 51 W 7 11 29.94 1014 10 16 0.00 0.00
7:52 pm 19:52 Mostly Cloudy with Light Rain and Scattered Storms 75 24 59 15 57 57 W 16 26 29.96 1015 10 16 0.00 0.00
7:56 pm 19:56 Mostly Cloudy with Light Rain and Scattered Storms 74 23.3 60 15.8 63 63 WNW 23 37 29.96 1015 10 16 0.00 0.03
8:06 pm 20:06 Windy with Storms Likely 68 20 57 14 69 69 W 20 31 29.99 1016 10 16 0.00 0.00
8:21 pm 20:21 Cloudy with Strong Thunderstorms 66 19 57 14 73 73 WNW 9 15 29.99 1016 9 14 0.00 0.00
8:32 pm 20:32 Cloudy with Light Rain 64 18 57 14 78 78 Calm 29.98 1015 10 16 0.00 0.00
8:56 pm 20:56 Cloudy with Light Rain 64 17.7 58 14.6 82 82 NW 3 6 29.98 1015 10 16 0.03 0.76
9:02 pm 21:02 Cloudy 64 18 59 15 83 83 NNE 5 7 29.97 1015 10 16 0.00 0.00
9:56 pm 21:56 Clear 62 16.6 59 14.9 90 90 ENE 5 7 29.98 1015 10 16 0.00 0.03
10:56 pm 22:56 Clear 61 16.2 58 14.7 91 91 WSW 3 6 30.00 1016 10 16 0.00 0.00
11:56 pm 23:56 Clear 62 16.7 58 14.7 88 88 SW 6 9 30.01 1016 10 16 0.00 0.00

Powered by AerisWeather